�������l�o���
Date,Time,MP-1(��Sv/h),MP-2(��Sv/h),MP-3(��Sv/h),MP-4(��Sv/h),MP-5(��Sv/h),MP-6(��Sv/h),MP-7(��Sv/h),MP-8(��Sv/h),����,����(m/s),���J
2021/02/06,00:00,0.666,0.961,0.612,1.215,0.855,0.379,0.671,0.632,�쐼,4.5,��
2021/02/06,00:10,0.666,0.959,0.610,1.214,0.856,0.381,0.672,0.632,��쐼,4.2,��
2021/02/06,00:20,0.667,0.960,0.610,1.211,0.854,0.380,0.672,0.632,��쐼,2.8,��
2021/02/06,00:30,0.665,0.957,0.610,1.211,0.856,0.380,0.671,0.632,��쐼,3.9,��
2021/02/06,00:40,0.665,0.957,0.612,1.213,0.857,0.380,0.670,0.633,��쐼,3.7,��
2021/02/06,00:50,0.668,0.960,0.610,1.213,0.857,0.379,0.671,0.633,��,3.7,��
2021/02/06,01:00,0.667,0.959,0.611,1.213,0.857,0.380,0.671,0.632,��쐼,3.0,��
2021/02/06,01:10,0.666,0.959,0.611,1.213,0.855,0.380,0.672,0.633,��,3.2,��
2021/02/06,01:20,0.668,0.959,0.611,1.213,0.855,0.380,0.672,0.632,��,4.7,��
2021/02/06,01:30,0.666,0.959,0.610,1.213,0.855,0.379,0.672,0.632,��쐼,5.6,��
2021/02/06,01:40,0.668,0.959,0.612,1.212,0.856,0.381,0.672,0.632,��쐼,6.7,��
2021/02/06,01:50,0.669,0.961,0.610,1.214,0.856,0.380,0.673,0.632,��쐼,6.4,��
2021/02/06,02:00,0.666,0.960,0.612,1.214,0.855,0.379,0.671,0.631,��쐼,6.9,��
2021/02/06,02:10,0.667,0.959,0.611,1.213,0.857,0.379,0.672,0.634,��쐼,7.2,��
2021/02/06,02:20,0.669,0.961,0.611,1.213,0.855,0.381,0.671,0.631,��쐼,5.8,��
2021/02/06,02:30,0.667,0.956,0.611,1.211,0.857,0.378,0.672,0.632,�쐼,6.9,��
2021/02/06,02:40,0.668,0.960,0.612,1.212,0.857,0.380,0.670,0.632,�쐼,6.5,��
2021/02/06,02:50,0.669,0.959,0.610,1.213,0.856,0.380,0.672,0.631,�쐼,6.4,��
2021/02/06,03:00,0.668,0.959,0.612,1.213,0.854,0.381,0.672,0.632,��쐼,6.1,��
2021/02/06,03:10,0.669,0.960,0.611,1.214,0.855,0.381,0.671,0.632,��쐼,5.6,��
2021/02/06,03:20,0.668,0.959,0.613,1.215,0.856,0.379,0.673,0.633,��쐼,4.8,��
2021/02/06,03:30,0.666,0.956,0.609,1.213,0.856,0.381,0.671,0.634,��쐼,5.2,��
2021/02/06,03:40,0.668,0.959,0.611,1.211,0.857,0.379,0.673,0.632,�쐼,3.8,��
2021/02/06,03:50,0.667,0.960,0.611,1.211,0.856,0.380,0.672,0.632,��쐼,3.8,��
2021/02/06,04:00,0.667,0.962,0.611,1.212,0.855,0.380,0.672,0.631,��쐼,2.6,��
2021/02/06,04:10,0.666,0.959,0.611,1.212,0.855,0.380,0.671,0.633,�쐼,2.0,��
2021/02/06,04:20,0.668,0.959,0.612,1.210,0.857,0.380,0.672,0.632,�k��,0.8,��
2021/02/06,04:30,0.668,0.958,0.610,1.212,0.856,0.380,0.673,0.633,�k�k��,1.4,��
2021/02/06,04:40,0.668,0.960,0.611,1.213,0.855,0.379,0.671,0.634,�k,0.9,��
2021/02/06,04:50,0.668,0.959,0.611,1.214,0.856,0.379,0.673,0.632,�k�k��,2.0,��
2021/02/06,05:00,0.667,0.961,0.611,1.212,0.855,0.379,0.673,0.631,�k��,1.4,��
2021/02/06,05:10,0.668,0.960,0.612,1.212,0.854,0.379,0.672,0.633,��,3.7,��
2021/02/06,05:20,0.666,0.961,0.612,1.210,0.856,0.380,0.675,0.632,���쐼,2.3,��
2021/02/06,05:30,0.669,0.956,0.612,1.214,0.857,0.379,0.673,0.633,���쐼,1.4,��
2021/02/06,05:40,0.667,0.958,0.610,1.212,0.855,0.380,0.672,0.633,��쐼,2.0,��
2021/02/06,05:50,0.668,0.958,0.611,1.214,0.857,0.380,0.672,0.633,�쐼,2.6,��
2021/02/06,06:00,0.666,0.960,0.612,1.213,0.853,0.380,0.671,0.632,��쐼,2.3,��
2021/02/06,06:10,0.666,0.959,0.612,1.212,0.855,0.380,0.673,0.633,�쐼,1.5,��
2021/02/06,06:20,0.668,0.959,0.612,1.212,0.856,0.379,0.671,0.633,��,2.8,��
2021/02/06,06:30,0.668,0.957,0.612,1.214,0.855,0.379,0.672,0.633,��,2.6,��
2021/02/06,06:40,0.666,0.962,0.612,1.214,0.856,0.380,0.672,0.633,��쐼,4.1,��
2021/02/06,06:50,0.667,0.960,0.613,1.212,0.856,0.381,0.671,0.634,��쐼,3.7,��
2021/02/06,07:00,0.668,0.960,0.610,1.214,0.856,0.379,0.674,0.633,��,4.9,��
2021/02/06,07:10,0.668,0.958,0.612,1.213,0.855,0.380,0.671,0.633,��쐼,5.7,��
2021/02/06,07:20,0.670,0.956,0.609,1.214,0.855,0.380,0.671,0.633,��,4.8,��
2021/02/06,07:30,0.667,0.958,0.611,1.215,0.856,0.380,0.672,0.633,��,5.5,��
2021/02/06,07:40,0.667,0.960,0.611,1.213,0.857,0.380,0.672,0.633,��쐼,5.0,��
2021/02/06,07:50,0.668,0.961,0.612,1.211,0.855,0.380,0.673,0.632,��쐼,5.1,��
2021/02/06,08:00,0.667,0.957,0.612,1.215,0.855,0.381,0.671,0.632,��쐼,5.4,��
2021/02/06,08:10,0.668,0.961,0.612,1.213,0.856,0.380,0.672,0.633,��쐼,7.1,��
2021/02/06,08:20,0.667,0.957,0.613,1.212,0.855,0.382,0.672,0.632,��쐼,7.8,��
2021/02/06,08:30,0.670,0.959,0.613,1.214,0.857,0.381,0.675,0.634,��쐼,6.4,��
2021/02/06,08:40,0.669,0.956,0.613,1.215,0.856,0.380,0.673,0.632,��쐼,4.8,��
2021/02/06,08:50,0.671,0.959,0.614,1.213,0.856,0.381,0.673,0.635,��,6.3,��
2021/02/06,09:00,0.668,0.958,0.612,1.214,0.857,0.381,0.675,0.634,��,4.7,��
2021/02/06,09:10,0.670,0.961,0.614,1.214,0.855,0.382,0.675,0.632,��쐼,4.8,��
2021/02/06,09:20,0.672,0.957,0.611,1.212,0.857,0.381,0.674,0.635,��쐼,5.8,��
2021/02/06,09:30,0.670,0.959,0.612,1.216,0.857,0.382,0.674,0.633,��쐼,5.2,��
2021/02/06,09:40,0.670,0.955,0.615,1.214,0.856,0.382,0.674,0.633,��쐼,3.9,��
2021/02/06,09:50,0.671,0.957,0.614,1.214,0.859,0.381,0.675,0.635,��쐼,4.6,��
2021/02/06,10:00,0.672,0.956,0.612,1.216,0.857,0.384,0.674,0.634,�쐼,4.4,��
2021/02/06,10:10,0.671,0.954,0.614,1.213,0.859,0.382,0.672,0.633,���쐼,4.2,��
2021/02/06,10:20,0.669,0.956,0.613,1.215,0.857,0.383,0.673,0.634,���쐼,4.4,��
2021/02/06,10:30,0.669,0.954,0.612,1.215,0.856,0.382,0.672,0.634,���쐼,4.3,��
2021/02/06,10:40,0.670,0.956,0.613,1.217,0.857,0.381,0.673,0.634,���쐼,7.8,��
2021/02/06,10:50,0.670,0.957,0.612,1.214,0.857,0.381,0.673,0.634,���쐼,7.7,��
2021/02/06,11:00,0.669,0.955,0.613,1.217,0.855,0.382,0.674,0.635,���쐼,7.5,��
2021/02/06,11:10,0.669,0.955,0.613,1.217,0.859,0.381,0.671,0.635,��,7.7,��
2021/02/06,11:20,0.669,0.957,0.613,1.216,0.857,0.380,0.674,0.634,���쐼,6.6,��
2021/02/06,11:30,0.670,0.960,0.613,1.217,0.854,0.381,0.675,0.634,���쐼,7.1,��
2021/02/06,11:40,0.669,0.960,0.612,1.215,0.857,0.381,0.674,0.635,��,7.5,��
2021/02/06,11:50,0.670,0.959,0.614,1.217,0.857,0.379,0.675,0.635,�쐼,6.8,��
2021/02/06,12:00,0.668,0.957,0.612,1.215,0.857,0.380,0.674,0.634,��,8.4,��
2021/02/06,12:10,0.668,0.960,0.612,1.216,0.856,0.380,0.673,0.636,���쐼,8.7,��
2021/02/06,12:20,0.669,0.958,0.612,1.217,0.855,0.383,0.674,0.633,���쐼,7.1,��
2021/02/06,12:30,0.670,0.961,0.615,1.217,0.856,0.379,0.674,0.632,���쐼,7.5,��
2021/02/06,12:40,0.671,0.958,0.613,1.216,0.856,0.382,0.674,0.634,���쐼,8.4,��
2021/02/06,12:50,0.670,0.958,0.614,1.217,0.857,0.383,0.673,0.633,���쐼,8.2,��
2021/02/06,13:00,0.670,0.957,0.613,1.218,0.858,0.383,0.673,0.631,��,11.3,��
2021/02/06,13:10,0.669,0.959,0.614,1.218,0.858,0.383,0.673,0.632,���쐼,8.1,��
2021/02/06,13:20,0.671,0.957,0.614,1.217,0.859,0.382,0.673,0.630,��,8.3,��
2021/02/06,13:30,0.673,0.957,0.613,1.216,0.859,0.383,0.673,0.632,���쐼,9.8,��
2021/02/06,13:40,0.672,0.957,0.615,1.214,0.861,0.384,0.674,0.633,���쐼,9.6,��
2021/02/06,13:50,0.672,0.960,0.615,1.219,0.858,0.383,0.674,0.632,��,8.2,��
2021/02/06,14:00,0.672,0.961,0.614,1.218,0.859,0.383,0.674,0.631,��,11.0,��
2021/02/06,14:10,0.670,0.958,0.614,1.217,0.858,0.383,0.673,0.635,���쐼,9.5,��
2021/02/06,14:20,0.671,0.960,0.612,1.219,0.859,0.382,0.673,0.633,��,8.6,��
2021/02/06,14:30,0.669,0.959,0.613,1.218,0.858,0.383,0.673,0.633,��,11.0,��
2021/02/06,14:40,0.668,0.960,0.613,1.217,0.858,0.382,0.674,0.632,��,9.5,��
2021/02/06,14:50,0.671,0.959,0.613,1.217,0.856,0.381,0.674,0.632,��,10.7,��
2021/02/06,15:00,0.672,0.960,0.611,1.219,0.857,0.380,0.672,0.632,��,10.0,��
2021/02/06,15:10,0.670,0.959,0.612,1.216,0.858,0.382,0.675,0.633,��,7.8,��
2021/02/06,15:20,0.671,0.961,0.613,1.217,0.858,0.382,0.675,0.631,��,9.4,��
2021/02/06,15:30,0.670,0.962,0.611,1.217,0.858,0.382,0.673,0.631,��,8.6,��
2021/02/06,15:40,0.669,0.961,0.613,1.218,0.858,0.383,0.673,0.633,��,9.8,��
2021/02/06,15:50,0.670,0.959,0.614,1.219,0.859,0.382,0.674,0.633,��,13.0,��
2021/02/06,16:00,0.669,0.959,0.611,1.219,0.861,0.381,0.674,0.631,��,9.9,��
2021/02/06,16:10,0.670,0.963,0.612,1.219,0.859,0.383,0.673,0.632,��,9.8,��
2021/02/06,16:20,0.669,0.963,0.614,1.216,0.858,0.384,0.674,0.633,��,11.8,��
2021/02/06,16:30,0.670,0.960,0.613,1.219,0.858,0.382,0.674,0.634,��,10.7,��
2021/02/06,16:40,0.671,0.962,0.614,1.219,0.858,0.382,0.674,0.634,��,9.9,��
2021/02/06,16:50,0.671,0.964,0.614,1.218,0.857,0.382,0.673,0.634,��,6.9,��
2021/02/06,17:00,0.672,0.961,0.613,1.218,0.858,0.382,0.674,0.635,���k��,8.8,��
2021/02/06,17:10,0.672,0.962,0.612,1.219,0.857,0.383,0.673,0.634,��,7.3,��
2021/02/06,17:20,0.671,0.963,0.613,1.219,0.861,0.383,0.674,0.635,��,8.5,��
2021/02/06,17:30,0.674,0.965,0.614,1.218,0.859,0.383,0.674,0.634,��,10.2,��
2021/02/06,17:40,0.670,0.964,0.613,1.218,0.860,0.382,0.674,0.635,��,8.7,��
2021/02/06,17:50,0.673,0.966,0.613,1.220,0.860,0.383,0.675,0.635,��,7.2,��
2021/02/06,18:00,0.671,0.962,0.613,1.220,0.860,0.382,0.675,0.635,���k��,7.3,��
2021/02/06,18:10,0.671,0.964,0.614,1.217,0.859,0.383,0.674,0.634,���k��,7.6,��
2021/02/06,18:20,0.672,0.964,0.615,1.220,0.860,0.382,0.675,0.633,��,7.7,��
2021/02/06,18:30,0.671,0.963,0.614,1.216,0.861,0.383,0.675,0.633,���k��,6.6,��
2021/02/06,18:40,0.671,0.963,0.615,1.218,0.861,0.383,0.674,0.634,���k��,6.6,��
2021/02/06,18:50,0.671,0.964,0.614,1.219,0.860,0.383,0.674,0.635,��,4.7,��
2021/02/06,19:00,0.671,0.965,0.612,1.217,0.860,0.383,0.675,0.634,���k��,4.3,��
2021/02/06,19:10,0.672,0.964,0.612,1.216,0.860,0.382,0.673,0.633,��,3.8,��
2021/02/06,19:20,0.672,0.965,0.612,1.220,0.860,0.383,0.674,0.634,��,4.4,��
2021/02/06,19:30,0.671,0.961,0.614,1.218,0.859,0.382,0.675,0.634,���쐼,4.1,��
2021/02/06,19:40,0.670,0.964,0.614,1.217,0.859,0.382,0.675,0.632,���쐼,3.0,��
2021/02/06,19:50,0.671,0.963,0.613,1.218,0.860,0.382,0.675,0.634,���쐼,2.6,��
2021/02/06,20:00,0.670,0.963,0.613,1.219,0.859,0.381,0.674,0.635,���쐼,3.1,��
2021/02/06,20:10,0.672,0.963,0.614,1.218,0.858,0.383,0.676,0.634,���쐼,3.5,��
2021/02/06,20:20,0.672,0.963,0.613,1.217,0.861,0.382,0.675,0.633,��,4.3,��
2021/02/06,20:30,0.670,0.962,0.612,1.216,0.861,0.382,0.675,0.634,���k��,3.5,��
2021/02/06,20:40,0.670,0.962,0.613,1.218,0.858,0.383,0.675,0.633,���k��,2.0,��
2021/02/06,20:50,0.670,0.966,0.613,1.217,0.859,0.383,0.674,0.633,�k��,3.5,��
2021/02/06,21:00,0.670,0.963,0.613,1.219,0.860,0.381,0.674,0.633,�k��,4.4,��
2021/02/06,21:10,0.669,0.963,0.614,1.218,0.860,0.382,0.675,0.636,���k��,5.4,��
2021/02/06,21:20,0.669,0.962,0.613,1.217,0.859,0.382,0.674,0.634,�k��,4.2,��
2021/02/06,21:30,0.671,0.964,0.613,1.218,0.858,0.382,0.675,0.633,�k�k��,4.4,��
2021/02/06,21:40,0.671,0.963,0.614,1.218,0.861,0.382,0.675,0.634,�k�k��,4.8,��
2021/02/06,21:50,0.672,0.966,0.613,1.220,0.859,0.382,0.674,0.635,�k��,5.7,��
2021/02/06,22:00,0.671,0.963,0.612,1.218,0.860,0.382,0.673,0.634,�k��,7.6,��
2021/02/06,22:10,0.671,0.963,0.613,1.215,0.860,0.381,0.675,0.634,�k��,6.8,��
2021/02/06,22:20,0.672,0.964,0.612,1.217,0.861,0.381,0.674,0.634,�k��,6.5,��
2021/02/06,22:30,0.668,0.965,0.613,1.217,0.861,0.383,0.675,0.634,���k��,4.8,��
2021/02/06,22:40,0.669,0.963,0.612,1.216,0.859,0.382,0.674,0.634,���k��,5.7,��
2021/02/06,22:50,0.670,0.964,0.613,1.218,0.859,0.382,0.675,0.635,��,6.7,��
2021/02/06,23:00,0.671,0.963,0.613,1.217,0.858,0.382,0.675,0.634,��,7.8,��
2021/02/06,23:10,0.670,0.963,0.615,1.217,0.860,0.381,0.675,0.634,��,7.9,��
2021/02/06,23:20,0.671,0.963,0.614,1.217,0.857,0.382,0.677,0.633,��,6.8,��
2021/02/06,23:30,0.671,0.962,0.613,1.218,0.859,0.382,0.676,0.635,��,6.1,��
2021/02/06,23:40,0.670,0.963,0.612,1.218,0.860,0.383,0.676,0.632,��,5.8,��
2021/02/06,23:50,0.671,0.961,0.613,1.219,0.860,0.383,0.676,0.635,��,4.4,��
